EW9032 Weather Reports


time (UTC)temp
C
wind
direction
speed
KPH
gust
KPH
rain 1hr
cm
rain 24hr
cm
rain mn
cm
humidity
%
barometer
mb
20260507155704 15 213 3.2 4.8 0.00 0.00 0.00 24 1010.3
20260507155204 14 269 1.6 4.8 0.00 0.00 0.00 24 1010.3
20260507153704 14 269 1.6 4.8 0.00 0.00 0.00 24 1010.3
20260507152704 13 260 1.6 4.8 0.00 0.00 0.00 25 1010.4
20260507152204 13 261 1.6 4.8 0.00 0.00 0.00 24 1010.4
20260507151705 13 261 3.2 4.8 0.00 0.00 0.00 26 1010.5
20260507151204 13 266 4.8 9.7 0.00 0.00 0.00 27 1010.5
20260507150704 13 275 3.2 4.8 0.00 0.00 0.00 27 1010.5
20260507145704 12 257 1.6 4.8 0.00 0.00 0.00 29 1010.6
20260507145204 12 257 3.2 4.8 0.00 0.00 0.00 29 1010.5
20260507144703 12 252 3.2 11.3 0.00 0.00 0.00 31 1010.5
20260507144204 11 247 3.2 11.3 0.00 0.00 0.00 32 1010.5
20260507143704 11 252 3.2 11.3 0.00 0.00 0.00 33 1010.5
20260507142704 10 216 8.0 12.9 0.00 0.00 0.00 35 1010.5
20260507141704 10 285 6.4 12.9 0.00 0.00 0.00 35 1010.5
20260507141204 10 271 8.0 12.9 0.00 0.00 0.00 36 1010.5
20260507140204 9 218 8.0 14.5 0.00 0.00 0.00 37 1010.2
20260507135704 8 214 8.0 14.5 0.00 0.00 0.00 38 1010.2
20260507135203 8 240 8.0 14.5 0.00 0.00 0.00 39 1010.2
20260507134703 8 225 9.7 19.3 0.00 0.00 0.00 39 1010.3
20260507134204 8 217 9.7 16.1 0.00 0.00 0.00 39 1010.2
20260507133704 8 227 8.0 16.1 0.00 0.00 0.00 40 1010.2
20260507133204 7 218 6.4 12.9 0.00 0.00 0.00 41 1010.1
20260507132704 7 225 6.4 12.9 0.00 0.00 0.00 41 1010.0
20260507132204 7 218 11.3 19.3 0.00 0.00 0.00 42 1009.9
20260507131704 7 213 11.3 19.3 0.00 0.00 0.00 42 1009.8
20260507131203 7 219 9.7 12.9 0.00 0.00 0.00 43 1009.8
20260507130704 6 220 9.7 14.5 0.00 0.00 0.00 43 1009.9
20260507130204 6 227 8.0 12.9 0.00 0.00 0.00 43 1009.8
20260507125704 6 217 11.3 19.3 0.00 0.00 0.00 42 1009.8
20260507125204 6 217 9.7 14.5 0.00 0.00 0.00 43 1009.8
20260507124703 6 234 4.8 16.1 0.00 0.00 0.00 43 1009.7
20260507122705 5 225 3.2 4.8 0.00 0.00 0.00 45 1009.6
20260507122204 6 225 3.2 4.8 0.00 0.00 0.00 43 1009.6
20260507121704 6 225 1.6 4.8 0.00 0.00 0.00 43 1009.5
20260507121203 6 225 0.0 4.8 0.00 0.00 0.00 42 1009.4
20260507120704 6 225 1.6 4.8 0.00 0.00 0.00 42 1009.3
20260507120203 6 225 3.2 8.0 0.00 0.00 0.00 42 1009.3
20260507115703 6 235 6.4 11.3 0.00 0.00 0.00 43 1009.2
20260507115204 5 210 6.4 12.9 0.00 0.00 0.00 44 1009.1
20260507114703 5 247 8.0 11.3 0.00 0.00 0.00 45 1009.2
20260507114204 5 215 1.6 4.8 0.00 0.00 0.00 45 1009.3
20260507113704 5 215 1.6 4.8 0.00 0.00 0.00 44 1009.3
20260507113204 6 216 1.6 4.8 0.00 0.00 0.00 43 1009.2
20260507112703 6 217 4.8 9.7 0.00 0.00 0.00 42 1009.1
20260507111704 6 220 4.8 8.0 0.00 0.00 0.00 42 1009.1
20260507110703 6 220 6.4 8.0 0.00 0.00 0.00 41 1009.1
20260507110204 6 223 3.2 9.7 0.00 0.00 0.00 41 1009.1
20260507105704 6 221 4.8 11.3 0.00 0.00 0.00 40 1009.1
20260507104704 6 216 8.0 9.7 0.00 0.00 0.00 40 1009.0
20260507104204 6 217 4.8 9.7 0.00 0.00 0.00 40 1009.0
20260507103704 6 218 8.0 11.3 0.00 0.00 0.00 40 1009.0
20260507103204 6 221 8.0 9.7 0.00 0.00 0.00 40 1009.0
20260507102704 6 220 6.4 9.7 0.00 0.00 0.00 39 1009.0
20260507101706 6 225 4.8 9.7 0.00 0.00 0.00 39 1009.1
20260507101205 6 215 8.0 11.3 0.00 0.00 0.00 39 1009.1
20260507100706 6 206 9.7 11.3 0.00 0.00 0.00 38 1009.1
20260507100206 6 212 8.0 12.9 0.00 0.00 0.00 38 1009.0
20260507095706 6 210 9.7 11.3 0.00 0.00 0.00 38 1009.0
20260507095205 6 248 4.8 8.0 0.00 0.00 0.00 38 1009.1
20260507094706 7 249 4.8 9.7 0.00 0.00 0.00 37 1009.0
20260507094205 7 214 6.4 12.9 0.00 0.00 0.00 36 1008.9
20260507093705 7 216 8.0 14.5 0.00 0.00 0.00 36 1008.9
20260507093205 7 221 9.7 16.1 0.00 0.00 0.00 36 1008.8
20260507092706 7 212 11.3 19.3 0.00 0.00 0.00 35 1008.7
20260507092206 7 220 11.3 14.5 0.00 0.00 0.00 35 1008.8
20260507091706 7 207 11.3 20.9 0.00 0.00 0.00 35 1008.9
20260507091205 7 204 11.3 19.3 0.00 0.00 0.00 35 1009.0
20260507090706 7 207 14.5 19.3 0.00 0.00 0.00 35 1009.1
20260507090205 7 213 12.9 19.3 0.00 0.00 0.00 36 1009.2
20260507085705 7 213 12.9 19.3 0.00 0.00 0.00 36 1009.2
20260507085206 6 212 11.3 19.3 0.00 0.00 0.00 36 1009.3
20260507084706 6 219 11.3 14.5 0.00 0.00 0.00 36 1009.4
20260507084206 6 217 9.7 14.5 0.00 0.00 0.00 37 1009.3
20260507083705 6 214 9.7 12.9 0.00 0.00 0.00 37 1009.3
20260507083205 6 213 8.0 11.3 0.00 0.00 0.00 37 1009.3
20260507082706 6 225 9.7 14.5 0.00 0.00 0.00 36 1009.4
20260507081706 6 217 9.7 14.5 0.00 0.00 0.00 37 1009.3
20260507081206 6 222 9.7 14.5 0.00 0.00 0.00 37 1009.3
20260507080706 6 213 4.8 4.8 0.00 0.00 0.00 37 1009.1
20260507080205 6 213 4.8 8.0 0.00 0.00 0.00 38 1009.3
20260507075706 6 212 4.8 8.0 0.00 0.00 0.00 38 1009.3
20260507074705 7 220 8.0 11.3 0.00 0.00 0.00 37 1009.5
20260507074205 7 218 8.0 9.7 0.00 0.00 0.00 36 1009.5
20260507073705 7 222 8.0 9.7 0.00 0.00 0.00 37 1009.5
20260507072705 7 214 8.0 9.7 0.00 0.00 0.00 37 1009.6
20260507072205 7 215 8.0 11.3 0.00 0.00 0.00 37 1009.7
20260507071705 7 216 8.0 12.9 0.00 0.00 0.00 37 1009.8
20260507071206 7 208 11.3 16.1 0.00 0.00 0.00 37 1009.8
20260507070205 7 214 9.7 16.1 0.00 0.00 0.00 38 1009.9
20260507065206 7 213 11.3 19.3 0.00 0.00 0.00 38 1010.0
20260507064705 7 203 12.9 19.3 0.00 0.00 0.00 37 1010.1
20260507064205 7 211 11.3 19.3 0.00 0.00 0.00 37 1010.1
20260507063705 7 207 14.5 20.9 0.00 0.00 0.00 36 1010.1
20260507063206 7 206 11.3 19.3 0.00 0.00 0.00 36 1010.2
20260507062705 7 212 11.3 19.3 0.00 0.00 0.00 36 1010.2
20260507061705 7 204 11.3 19.3 0.00 0.00 0.00 36 1010.4
20260507061205 7 211 14.5 19.3 0.00 0.00 0.00 36 1010.5
20260507060705 7 210 14.5 20.9 0.00 0.00 0.00 36 1010.6
20260507060205 7 219 12.9 19.3 0.00 0.00 0.00 35 1010.6
20260507055705 8 209 12.9 19.3 0.00 0.00 0.00 34 1010.6
20260507055206 8 202 11.3 19.3 0.00 0.00 0.00 34 1010.7
20260507054706 8 207 11.3 16.1 0.00 0.00 0.00 33 1010.6
20260507054205 8 205 9.7 14.5 0.00 0.00 0.00 33 1010.6
20260507053206 8 211 4.8 8.0 0.00 0.00 0.00 33 1010.8
20260507052705 8 211 3.2 4.8 0.00 0.00 0.00 34 1010.8
20260507052206 8 215 3.2 4.8 0.00 0.00 0.00 34 1010.8
20260507051705 8 216 3.2 9.7 0.00 0.00 0.00 33 1010.9
20260507051205 8 218 3.2 9.7 0.00 0.00 0.00 34 1010.9
20260507050705 7 239 4.8 8.0 0.00 0.00 0.00 35 1011.0
20260507045706 6 252 3.2 9.7 0.00 0.00 0.00 38 1011.1
20260507045205 6 260 0.0 1.6 0.00 0.00 0.00 38 1011.2
20260507044705 6 260 0.0 0.0 0.00 0.00 0.00 39 1011.4
20260507044205 6 260 0.0 1.6 0.00 0.00 0.00 38 1011.4
20260507043705 7 260 1.6 3.2 0.00 0.00 0.00 36 1011.5
20260507043205 8 260 1.6 3.2 0.00 0.00 0.00 34 1011.6
20260507042705 8 260 1.6 4.8 0.00 0.00 0.00 32 1011.6
20260507042206 8 260 1.6 3.2 0.00 0.00 0.00 33 1011.7
20260507041705 7 260 1.6 3.2 0.00 0.00 0.00 34 1011.7
20260507041205 7 260 1.6 4.8 0.00 0.00 0.00 34 1011.8
20260507040705 7 260 0.0 1.6 0.00 0.00 0.00 36 1011.8
20260507040205 8 260 0.0 1.6 0.00 0.00 0.00 35 1012.0
20260507035706 8 260 0.0 1.6 0.00 0.00 0.00 35 1012.0
20260507034705 8 260 1.6 3.2 0.00 0.00 0.00 32 1012.2
20260507034205 8 260 1.6 3.2 0.00 0.00 0.00 32 1012.3
20260507033705 8 260 1.6 4.8 0.00 0.00 0.00 32 1012.3
20260507032705 8 260 0.0 1.6 0.00 0.00 0.00 35 1012.3
20260507032206 8 260 0.0 1.6 0.00 0.00 0.00 35 1012.2
20260507031706 8 260 1.6 3.2 0.00 0.00 0.00 35 1012.3
20260507031205 8 260 0.0 1.6 0.00 0.00 0.00 34 1012.3
20260507030705 8 260 0.0 1.6 0.00 0.00 0.00 34 1012.2
20260507030205 8 260 0.0 1.6 0.00 0.00 0.00 34 1012.3
20260507025705 9 260 0.0 1.6 0.00 0.00 0.00 34 1012.3
20260507024705 10 260 0.0 0.0 0.00 0.00 0.00 32 1012.2
20260507024205 10 260 0.0 1.6 0.00 0.00 0.00 31 1012.2
20260507023705 10 260 0.0 1.6 0.00 0.00 0.00 29 1012.2
20260507023205 10 260 0.0 1.6 0.00 0.00 0.00 29 1012.2
20260507022705 11 260 0.0 1.6 0.00 0.00 0.00 28 1012.2
20260507022205 11 260 0.0 1.6 0.00 0.00 0.00 28 1012.1
20260507021705 11 260 0.0 1.6 0.00 0.00 0.00 27 1012.1
20260507021205 12 260 1.6 3.2 0.00 0.00 0.00 26 1012.2
20260507020705 12 260 3.2 4.8 0.00 0.00 0.00 24 1012.3
20260507020205 12 260 3.2 4.8 0.00 0.00 0.00 24 1012.3
20260507015705 12 260 3.2 4.8 0.00 0.00 0.00 24 1012.4
20260507015205 12 260 4.8 9.7 0.00 0.00 0.00 24 1012.4
20260507013205 13 273 8.0 16.1 0.00 0.00 0.00 22 1012.6
20260507012205 14 278 9.7 19.3 0.00 0.00 0.00 22 1012.6
20260507011705 14 254 9.7 20.9 0.00 0.00 0.00 22 1012.7
20260507011205 14 225 9.7 14.5 0.00 0.00 0.00 21 1012.7
20260507010705 14 246 8.0 19.3 0.00 0.00 0.00 21 1012.7
20260507010205 14 254 11.3 20.9 0.00 0.00 0.00 21 1012.7
20260507005705 14 278 8.0 19.3 0.00 0.00 0.00 22 1012.8
20260507005205 14 274 6.4 16.1 0.00 0.00 0.00 22 1012.9
20260507004704 14 222 6.4 19.3 0.00 0.00 0.00 22 1013.0
20260507004205 13 240 11.3 20.9 0.00 0.00 0.00 22 1013.0
20260507003205 13 260 9.7 22.5 0.00 0.00 0.00 22 1013.2
20260507002705 13 258 9.7 20.9 0.00 0.00 0.00 22 1013.3
20260507002205 13 278 14.5 27.4 0.00 0.00 0.00 22 1013.3
20260507001705 14 239 16.1 29.0 0.00 0.00 0.00 21 1013.4
20260507001205 14 278 9.7 25.7 0.00 0.00 0.00 21 1013.5
20260507000704 14 279 14.5 27.4 0.00 0.00 0.00 21 1013.6
20260507000205 14 222 14.5 22.5 0.00 0.00 0.00 22 1013.6
20260506235705 14 259 11.3 27.4 0.00 0.00 0.00 21 1013.7
20260506235205 14 244 16.1 24.1 0.00 0.00 0.00 21 1013.8
20260506234205 14 270 14.5 25.7 0.00 0.00 0.00 21 1013.9
20260506233705 14 285 14.5 29.0 0.00 0.00 0.00 20 1013.9
20260506233205 14 289 14.5 32.2 0.00 0.00 0.00 20 1013.9
20260506232205 14 223 17.7 25.7 0.00 0.00 0.00 20 1013.9
20260506231705 14 267 16.1 32.2 0.00 0.00 0.00 21 1014.0
20260506230705 14 273 12.9 20.9 0.00 0.00 0.00 20 1013.9
20260506230204 14 273 14.5 27.4 0.00 0.00 0.00 20 1014.1
20260506225205 14 246 14.5 24.1 0.00 0.00 0.00 21 1014.2
20260506224704 13 302 11.3 29.0 0.00 0.00 0.00 20 1014.2
20260506224205 14 290 14.5 32.2 0.00 0.00 0.00 21 1014.4
20260506223204 13 296 11.3 20.9 0.00 0.00 0.00 20 1014.7
20260506222705 13 267 14.5 32.2 0.00 0.00 0.00 20 1014.8
20260506222205 13 206 19.3 32.2 0.00 0.00 0.00 20 1014.8
20260506221705 13 301 16.1 27.4 0.00 0.00 0.00 20 1014.9
20260506221204 13 255 17.7 32.2 0.00 0.00 0.00 21 1015.1
20260506220704 13 228 20.9 35.4 0.00 0.00 0.00 21 1015.2
20260506220205 13 255 12.9 25.7 0.00 0.00 0.00 21 1015.3
20260506215705 13 263 16.1 27.4 0.00 0.00 0.00 21 1015.5
20260506215204 13 275 12.9 22.5 0.00 0.00 0.00 21 1015.6
20260506214704 13 234 9.7 19.3 0.00 0.00 0.00 21 1015.6
20260506214205 13 268 17.7 37.0 0.00 0.00 0.00 21 1015.9
20260506213704 13 250 11.3 22.5 0.00 0.00 0.00 21 1015.9
20260506212705 13 269 16.1 32.2 0.00 0.00 0.00 22 1016.1
20260506212204 12 254 9.7 27.4 0.00 0.00 0.00 22 1016.2
20260506211704 12 263 16.1 32.2 0.00 0.00 0.00 22 1016.4
20260506210705 12 246 16.1 24.1 0.00 0.00 0.00 24 1016.6
20260506210204 12 303 14.5 25.7 0.00 0.00 0.00 24 1016.6
20260506205705 12 215 19.3 35.4 0.00 0.00 0.00 24 1016.6
20260506204704 12 293 9.7 20.9 0.00 0.00 0.00 24 1016.9
20260506204205 12 257 16.1 35.4 0.00 0.00 0.00 24 1017.0
20260506203705 11 252 14.5 22.5 0.00 0.00 0.00 25 1017.0
20260506203205 11 233 17.7 32.2 0.00 0.00 0.00 25 1017.1
20260506201705 11 234 8.0 24.1 0.00 0.00 0.00 25 1017.3
20260506200705 11 219 16.1 29.0 0.00 0.00 0.00 25 1017.6
20260506200205 11 223 11.3 24.1 0.00 0.00 0.00 26 1017.4
20260506195204 11 231 12.9 20.9 0.00 0.00 0.00 26 1017.7
20260506194704 11 238 8.0 22.5 0.00 0.00 0.00 26 1017.8
20260506193704 11 224 8.0 25.7 0.00 0.00 0.00 26 1017.8
20260506193205 10 224 8.0 16.1 0.00 0.00 0.00 27 1017.9
20260506192705 10 220 9.7 19.3 0.00 0.00 0.00 27 1018.1
20260506192204 10 261 14.5 24.1 0.00 0.00 0.00 27 1018.2
20260506191704 10 226 14.5 25.7 0.00 0.00 0.00 27 1018.2
20260506191205 10 289 9.7 22.5 0.00 0.00 0.00 27 1018.2
20260506190705 10 299 9.7 22.5 0.00 0.00 0.00 26 1018.4
20260506185704 10 298 11.3 24.1 0.00 0.00 0.00 28 1018.5
20260506185204 10 218 11.3 29.0 0.00 0.00 0.00 28 1018.5
20260506184705 10 265 9.7 19.3 0.00 0.00 0.00 28 1018.6
20260506184204 10 271 14.5 20.9 0.00 0.00 0.00 28 1018.6
20260506183204 10 307 14.5 24.1 0.00 0.00 0.00 30 1018.9
20260506182705 9 258 12.9 25.7 0.00 0.00 0.00 30 1018.9
20260506182204 9 256 4.8 19.3 0.00 0.00 0.00 32 1019.0
20260506181704 8 203 14.5 20.9 0.00 0.00 0.00 32 1019.1
20260506181205 8 279 9.7 20.9 0.00 0.00 0.00 34 1019.1
20260506180705 8 248 11.3 24.1 0.00 0.00 0.00 33 1019.3
20260506180205 8 289 9.7 24.1 0.00 0.00 0.00 33 1019.4
20260506175704 8 259 16.1 27.4 0.00 0.00 0.00 34 1019.5
20260506175204 8 294 8.0 20.9 0.00 0.00 0.00 34 1019.5
20260506174705 8 213 11.3 22.5 0.00 0.00 0.00 34 1019.6
20260506174204 8 254 11.3 25.7 0.00 0.00 0.00 34 1019.7
20260506173704 8 281 8.0 22.5 0.00 0.00 0.00 36 1019.8
20260506173204 8 231 9.7 20.9 0.00 0.00 0.00 35 1019.9
20260506172704 8 293 8.0 24.1 0.00 0.00 0.00 35 1020.0
20260506172204 8 311 9.7 20.9 0.00 0.00 0.00 35 1020.0
20260506171704 7 298 9.7 19.3 0.00 0.00 0.00 36 1020.1
20260506170704 7 313 12.9 25.7 0.00 0.00 0.00 36 1020.2
20260506170204 7 282 9.7 19.3 0.00 0.00 0.00 36 1020.3
20260506165204 7 270 9.7 32.2 0.00 0.00 0.00 35 1020.4
20260506164204 7 305 9.7 24.1 0.00 0.00 0.00 37 1020.5
20260506163704 7 291 14.5 25.7 0.00 0.00 0.00 36 1020.5
20260506162704 7 289 14.5 27.4 0.00 0.00 0.00 37 1020.5
20260506162204 7 292 9.7 27.4 0.00 0.00 0.00 37 1020.6
20260506161704 6 314 8.0 24.1 0.00 0.00 0.00 38 1020.6
20260506161204 6 241 9.7 25.7 0.00 0.00 0.00 37 1020.5
20260506160204 6 305 11.3 22.5 0.00 0.00 0.00 38 1020.6